Regional Weather Roundup
Issued by NWS

Home | Current Version | Previous Version | Text Only | Print | Product List | Glossary Off
Versions: 1 2 3 4 5 6 7 8 9 10 11 12 13 14 15 16 17 18 19 20 21 22 23 24 25 26 27 28 29 30 31 32 33 34 35 36 37 38 39 40 41 42 43 44 45 46 47 48 49 50

000
ASUS43 KDTX 232310
RWRMI
MICHIGAN HOURLY REGIONAL WEATHER ROUNDUP
NATIONAL WEATHER SERVICE DETROIT/PONTIAC MI
700 PM EDT TUE SEP 23 2014

NOTE: "FAIR" INDICATES FEW OR NO CLOUDS BELOW 12,000 FEET WITH NO
SIGNIFICANT WEATHER AND/OR OBSTRUCTION TO VISIBILITY.

MIZ047>049-052>055-059>063-066>070-074>076-081>083-240000-
SOUTHEAST LOWER MICHIGAN

CITY           SKY/WX    TMP DP  RH WIND       PRES   REMARKS
ADRIAN         CLEAR     69  48  47 SE5       30.32R
ALMA           CLEAR     69  55  61 CALM      30.30S
ANN ARBOR      CLEAR     66  53  63 SW3       30.32R
BAD AXE        CLEAR     68  56  64 CALM      30.31S
CARO           CLEAR     67  56  67 CALM      30.31R
DETROIT CITY   CLEAR     69  50  50 SE8       30.32R
DETROIT        CLEAR     65  50  58 SE6       30.33R
FLINT          CLEAR     70  53  54 S5        30.31R
GROSSE ILE     CLEAR     64  52  63 SE5       30.32S
HILLSDALE      CLEAR     69  50  49 CALM      30.32R
HOWELL         CLEAR     67  52  59 CALM      30.32R

CITY           SKY/WX    TMP DP  RH WIND       PRES   REMARKS
JACKSON        CLEAR     70  50  49 CALM      30.32R
LAMBERTVILLE   CLEAR     66  52  59 CALM      30.33R
LANSING        CLEAR     70  53  54 CALM      30.31S
LAPEER         FAIR      67  55  66 CALM      30.32S
MASON          CLEAR     69  52  54 CALM      30.31S
MONROE         CLEAR     64  52  63 SE6       30.32R HAZE
MT. CLEMENS    PTCLDY    62  51  66 S7        30.31R
PONTIAC        CLEAR     69  49  48 CALM      30.32R
PORT HOPE        N/A     64  55  72 CALM      30.29R
PORT HURON     CLEAR     63  54  72 S3        30.33R
TRI CITIES     CLEAR     73  52  47 CALM      30.30S
TROY           CLEAR     71  47  41 CALM      30.34R
SAGINAW HB     CLEAR     70  52  52 S3        30.30R
$$
MIZ043>046-050>051-056>058-064>065-071>073-077>080-240000-
SOUTHWEST LOWER MICHIGAN

CITY           SKY/WX    TMP DP  RH WIND       PRES   REMARKS
BATTLE CREEK   CLEAR     71  50  47 N3        30.31S
BENTON HARBOR  CLEAR     64  48  56 CALM      30.30S
BIG RAPIDS     CLEAR     67  60  78 CALM      30.29R
COLDWATER      CLEAR     72  50  45 CALM      30.31S
FREMONT        FAIR      65  48  53 SW5       30.29S
HOLLAND        CLEAR     67  50  54 CALM      30.31S
GRAND RAPIDS   PTCLDY    68  54  60 W6        30.31R
IONIA          FAIR      70  53  54 W3        30.29S
KALAMAZOO      CLEAR     70  51  51 CALM      30.31R
LUDINGTON      CLEAR     66  53  62 S3        30.29S
MARSHALL       CLEAR     70  50  48 CALM      30.30S
MOUNT PLEASANT CLEAR     71  55  57 CALM      30.29R
MUSKEGON       CLEAR     64  52  64 S5        30.30S
SOUTH HAVEN    CLEAR     66  51  56 CALM      30.30S
$$
MIZ016>042-240000-
NORTHERN LOWER MICHIGAN

CITY           SKY/WX    TMP DP  RH WIND       PRES   REMARKS
ALPENA         CLEAR     64  54  69 E5        30.29R
BEAVER ISLAND  CLEAR     63  56  77 SW3       30.28S
BELLAIRE       CLEAR     67  58  72 CALM      30.28R
CADILLAC       CLEAR     68  56  65 CALM      30.29S
CHARLEVOIX     CLEAR     65  56  74 W5        30.31S
FRANKFORT      CLEAR     65  52  62 CALM      30.29S
GAYLORD        CLEAR     68  53  58 CALM      30.30R
GRAYLING       CLEAR     70  56  61 CALM      30.30R
HARBOR SPRINGS CLEAR     64  54  68 W3        30.29R
HOUGHTON LAKE  CLEAR     68  57  68 CALM      30.30R
MANISTEE       CLEAR     66  52  59 SW3       30.29S
OSCODA         CLEAR     68  56  64 S5        30.28R
PELLSTON       CLEAR     66  54  65 SW5       30.29R
TRAVERSE CITY  PTCLDY    69  54  58 W3        30.27R
$$
MIZ007>008-015-240000-
EASTERN UPPER MICHIGAN

CITY           SKY/WX    TMP DP  RH WIND       PRES   REMARKS
KINROSS        CLEAR     70  55  60 CALM      30.26S
MACKINAC ISLAN CLEAR     61  55  78 W10       30.27S
NEWBERRY       CLEAR     66  55  66 S3        30.26S
S. S. MARIE    CLEAR     68  55  63 W5        30.25S
MUNISING         N/A     62  53  72 CALM      30.23S
$$
MIZ004>006-011>014-085-240000-
CENTRAL UPPER MICHIGAN

CITY           SKY/WX    TMP DP  RH WIND       PRES   REMARKS
MANISTIQUE     CLEAR     60  56  89 S3        30.26R
ESCANABA       CLEAR     64  52  63 S9        30.23S
MENOMINEE      CLEAR     70  54  56 S6        30.23S
SAWYER-GWINN   CLEAR     70  57  64 CALM      30.23R
$$
MIZ001>003-009>011-084-240000-
WESTERN UPPER MICHIGAN

CITY           SKY/WX    TMP DP  RH WIND       PRES   REMARKS
IRON MOUNTAIN  CLEAR     72  53  51 S6        30.22R
HOUGHTON       CLEAR     62  52  69 E6        30.21S
COPPER HARBOR    N/A     62  51  67 VRB3      30.21S
IRONWOOD       CLEAR     72  50  46 S6        30.16S
$$

ABBREVIATIONS USED IN REMARKS
   TC - TEMPERATURE IN CELSIUS
  WCI - WIND CHILL INDEX
   HX - HEAT INDEX
  VSB - VISIBILITY



USA.gov is the U.S. government's official web portal to all federal, state and local government web resources and services.